GW7653 Weather Reports


time (UTC)temp
C
wind
direction
speed
KPH
gust
KPH
rain 1hr
cm
rain 24hr
cm
rain mn
cm
humidity
%
barometer
mb
20260902224119 21 49 0.0 0.0 0.00 0.00 0.00 47 1013.5
20260902223618 21 49 0.0 0.0 0.00 0.00 0.00 47 1013.9
20260902223118 21 49 0.0 0.0 0.00 0.00 0.00 47 1013.9
20260902222618 21 49 0.0 0.0 0.00 0.00 0.00 46 1013.5
20260902222118 21 49 0.0 0.0 0.00 0.00 0.00 47 1013.5
20260902221618 22 49 0.0 0.0 0.00 0.00 0.00 45 1013.9
20260902221118 22 49 0.0 0.0 0.00 0.00 0.00 44 1013.9
20260902220621 22 49 0.0 0.0 0.00 0.00 0.00 44 1013.9
20260902220118 22 49 0.0 0.0 0.00 0.00 0.00 44 1013.9
20260902215618 22 49 0.0 0.0 0.00 0.00 0.00 44 1013.9
20260902215121 22 49 0.0 0.0 0.00 0.00 0.00 44 1013.9
20260902214618 22 47 0.0 0.0 0.00 0.00 0.00 43 1013.9
20260902214119 22 47 0.0 0.0 0.00 0.00 0.00 44 1014.2
20260902213618 22 45 0.0 0.0 0.00 0.00 0.00 43 1014.2
20260902213119 22 44 0.0 0.0 0.00 0.00 0.00 43 1014.2
20260902212618 22 44 0.0 0.0 0.00 0.00 0.00 43 1014.2
20260902212119 22 45 0.0 0.0 0.00 0.00 0.00 43 1014.2
20260902211618 22 52 0.0 0.0 0.00 0.00 0.00 44 1014.2
20260902211119 22 67 0.0 0.0 0.00 0.00 0.00 45 1014.2
20260902210619 22 93 0.0 0.0 0.00 0.00 0.00 45 1014.2
20260902210118 22 91 0.0 0.0 0.00 0.00 0.00 46 1014.2
20260902205619 22 106 0.0 0.0 0.00 0.00 0.00 46 1014.2
20260902205118 22 53 0.0 0.0 0.00 0.00 0.00 50 1014.2
20260902204618 22 63 1.6 1.6 0.00 0.00 0.00 50 1014.2
20260902204119 22 260 0.0 0.0 0.00 0.00 0.00 53 1014.2
20260902203618 22 260 0.0 0.0 0.00 0.00 0.00 53 1014.2
20260902203118 22 260 0.0 0.0 0.00 0.00 0.00 53 1014.2
20260902202620 23 260 0.0 0.0 0.00 0.00 0.00 52 1014.2
20260902202119 23 260 0.0 0.0 0.00 0.00 0.00 52 1013.9
20260902201620 23 260 0.0 0.0 0.00 0.00 0.00 51 1014.2
20260902201119 23 260 0.0 0.0 0.00 0.00 0.00 49 1014.2
20260902200618 24 260 0.0 0.0 0.00 0.00 0.00 48 1014.2
20260902200118 25 260 0.0 0.0 0.00 0.00 0.00 47 1014.2
20260902195618 25 260 0.0 0.0 0.00 0.00 0.00 44 1014.2
20260902195118 25 260 0.0 0.0 0.00 0.00 0.00 44 1014.2
20260902194618 25 260 1.6 1.6 0.00 0.00 0.00 43 1014.2
20260902194118 25 265 0.0 0.0 0.00 0.00 0.00 43 1014.2
20260902193619 25 265 0.0 0.0 0.00 0.00 0.00 43 1014.2
20260902193118 25 265 0.0 0.0 0.00 0.00 0.00 43 1014.2
20260902192618 25 266 0.0 0.0 0.00 0.00 0.00 43 1014.2
20260902192118 25 304 0.0 0.0 0.00 0.00 0.00 43 1014.6
20260902191620 25 257 0.0 1.6 0.00 0.00 0.00 43 1014.6
20260902191118 25 264 3.2 3.2 0.00 0.00 0.00 43 1014.2
20260902190618 25 280 0.0 0.0 0.00 0.00 0.00 43 1014.6
20260902190118 25 272 0.0 0.0 0.00 0.00 0.00 43 1014.6
20260902185618 25 255 0.0 0.0 0.00 0.00 0.00 44 1014.2
20260902185119 25 253 0.0 0.0 0.00 0.00 0.00 44 1014.6
20260902184619 25 258 1.6 1.6 0.00 0.00 0.00 44 1014.2
20260902184119 26 252 3.2 3.2 0.00 0.00 0.00 43 1014.6
20260902183619 26 289 4.8 4.8 0.00 0.00 0.00 44 1014.6
20260902183120 26 270 1.6 1.6 0.00 0.00 0.00 45 1014.2
20260902182620 26 261 1.6 1.6 0.00 0.00 0.00 45 1014.2
20260902182118 26 259 1.6 1.6 0.00 0.00 0.00 46 1014.6
20260902181618 26 277 6.4 8.0 0.00 0.00 0.00 47 1014.6
20260902181118 26 255 6.4 9.7 0.00 0.00 0.00 47 1014.6
20260902180619 26 284 4.8 4.8 0.00 0.00 0.00 48 1014.2
20260902180122 26 250 4.8 4.8 0.00 0.00 0.00 48 1014.2
20260902175619 26 262 3.2 1.6 0.00 0.00 0.00 50 1014.2
20260902175119 25 282 3.2 3.2 0.00 0.00 0.00 52 1014.2
20260902174619 25 268 3.2 4.8 0.00 0.00 0.00 54 1014.2
20260902174119 25 264 1.6 1.6 0.00 0.00 0.00 55 1013.9
20260902173618 25 293 3.2 4.8 0.00 0.00 0.00 56 1014.2
20260902173120 25 276 4.8 8.0 0.00 0.00 0.00 56 1014.2
20260902172618 25 277 3.2 3.2 0.00 0.00 0.00 57 1014.2
20260902172119 26 302 6.4 8.0 0.00 0.00 0.00 57 1013.9
20260902171618 25 264 4.8 8.0 0.00 0.00 0.00 57 1014.2
20260902171119 25 261 1.6 1.6 0.00 0.00 0.00 58 1014.2
20260902170619 25 252 1.6 1.6 0.00 0.00 0.00 59 1013.9
20260902170119 25 257 1.6 3.2 0.00 0.00 0.00 61 1013.9
20260902165619 25 254 4.8 4.8 0.00 0.00 0.00 62 1013.9
20260902165119 25 279 3.2 3.2 0.00 0.00 0.00 62 1013.9
20260902164619 25 244 3.2 3.2 0.00 0.00 0.00 62 1013.9
20260902164118 25 274 4.8 4.8 0.00 0.00 0.00 62 1013.9
20260902163619 25 294 0.0 0.0 0.00 0.00 0.00 62 1013.9
20260902163119 25 304 1.6 1.6 0.00 0.00 0.00 62 1013.5
20260902162619 25 256 4.8 4.8 0.00 0.00 0.00 62 1013.9
20260902162118 26 310 6.4 8.0 0.00 0.00 0.00 62 1013.9
20260902161619 26 268 9.7 11.3 0.00 0.00 0.00 61 1013.5
20260902161118 26 258 4.8 4.8 0.00 0.00 0.00 60 1013.5
20260902160618 26 249 8.0 9.7 0.00 0.00 0.00 59 1013.5
20260902160120 26 285 4.8 4.8 0.00 0.00 0.00 58 1013.5
20260902155618 27 293 3.2 8.0 0.00 0.00 0.00 56 1013.5
20260902155118 27 285 6.4 9.7 0.00 0.00 0.00 55 1013.2
20260902154621 27 303 8.0 9.7 0.00 0.00 0.00 54 1013.5
20260902154119 28 267 3.2 4.8 0.00 0.00 0.00 52 1013.5
20260902153619 28 246 6.4 8.0 0.00 0.00 0.00 51 1013.5
20260902153119 29 272 11.3 12.9 0.00 0.00 0.00 49 1013.5
20260902152619 29 254 1.6 3.2 0.00 0.00 0.00 48 1013.5
20260902152120 29 282 8.0 11.3 0.00 0.00 0.00 47 1013.5
20260902151620 30 276 9.7 11.3 0.00 0.00 0.00 46 1013.5
20260902151121 30 291 11.3 12.9 0.00 0.00 0.00 43 1013.5
20260902150620 30 43 4.8 4.8 0.00 0.00 0.00 42 1013.5
20260902150119 30 279 1.6 1.6 0.00 0.00 0.00 41 1013.5
20260902145619 30 278 0.0 0.0 0.00 0.00 0.00 40 1013.5
20260902145118 30 279 6.4 8.0 0.00 0.00 0.00 41 1013.5
20260902144619 31 244 1.6 1.6 0.00 0.00 0.00 40 1013.5
20260902144119 31 234 1.6 1.6 0.00 0.00 0.00 40 1013.5
20260902143619 31 20 4.8 4.8 0.00 0.00 0.00 38 1013.5
20260902143118 31 257 4.8 9.7 0.00 0.00 0.00 38 1013.5
20260902142618 31 266 11.3 14.5 0.00 0.00 0.00 36 1013.5
20260902142118 32 270 6.4 9.7 0.00 0.00 0.00 35 1013.5
20260902141618 32 239 4.8 8.0 0.00 0.00 0.00 35 1013.5
20260902141119 32 286 4.8 4.8 0.00 0.00 0.00 35 1013.5
20260902140618 32 282 8.0 11.3 0.00 0.00 0.00 36 1013.5
20260902140120 32 240 6.4 11.3 0.00 0.00 0.00 35 1013.5
20260902135618 32 260 4.8 4.8 0.00 0.00 0.00 35 1013.5
20260902135119 32 209 6.4 8.0 0.00 0.00 0.00 36 1013.5
20260902134618 32 247 6.4 8.0 0.00 0.00 0.00 37 1013.5
20260902134118 32 259 8.0 9.7 0.00 0.00 0.00 35 1013.5
20260902133618 32 287 3.2 4.8 0.00 0.00 0.00 38 1013.5
20260902133120 32 76 3.2 3.2 0.00 0.00 0.00 37 1013.5
20260902132620 32 91 4.8 4.8 0.00 0.00 0.00 33 1013.5
20260902132118 32 319 4.8 11.3 0.00 0.00 0.00 33 1013.5
20260902131618 32 179 3.2 4.8 0.00 0.00 0.00 35 1013.5
20260902131119 33 328 3.2 3.2 0.00 0.00 0.00 34 1013.5
20260902130619 33 287 6.4 9.7 0.00 0.00 0.00 29 1013.5
20260902130119 32 271 4.8 4.8 0.00 0.00 0.00 32 1013.5
20260902125618 33 251 4.8 8.0 0.00 0.00 0.00 34 1013.5
20260902125119 32 319 1.6 1.6 0.00 0.00 0.00 31 1013.5
20260902124618 32 243 12.9 16.1 0.00 0.00 0.00 35 1013.5
20260902124118 32 278 6.4 8.0 0.00 0.00 0.00 37 1013.5
20260902123618 33 319 6.4 8.0 0.00 0.00 0.00 34 1013.5
20260902123119 33 251 4.8 8.0 0.00 0.00 0.00 35 1013.5
20260902122619 32 291 3.2 3.2 0.00 0.00 0.00 37 1013.5
20260902122119 33 273 6.4 8.0 0.00 0.00 0.00 37 1013.5
20260902121619 33 251 4.8 4.8 0.00 0.00 0.00 34 1013.5
20260902121120 33 317 9.7 11.3 0.00 0.00 0.00 31 1013.5
20260902120619 33 248 4.8 4.8 0.00 0.00 0.00 33 1013.5
20260902120119 34 149 1.6 1.6 0.00 0.00 0.00 28 1013.5
20260902115618 33 270 9.7 12.9 0.00 0.00 0.00 28 1013.5
20260902115119 33 275 8.0 9.7 0.00 0.00 0.00 32 1013.9
20260902114619 34 225 6.4 11.3 0.00 0.00 0.00 25 1013.5
20260902114119 35 277 4.8 3.2 0.00 0.00 0.00 22 1013.9
20260902113618 34 357 1.6 1.6 0.00 0.00 0.00 23 1013.9
20260902113119 34 252 6.4 8.0 0.00 0.00 0.00 22 1013.9
20260902112618 35 297 8.0 8.0 0.00 0.00 0.00 19 1013.9
20260902112118 35 237 3.2 4.8 0.00 0.00 0.00 21 1013.9
20260902111618 35 280 6.4 11.3 0.00 0.00 0.00 22 1014.2
20260902111118 33 263 3.2 4.8 0.00 0.00 0.00 21 1014.2
20260902110620 34 257 1.6 1.6 0.00 0.00 0.00 20 1014.2
20260902110119 34 152 0.0 0.0 0.00 0.00 0.00 20 1014.2
20260902105619 34 173 1.6 3.2 0.00 0.00 0.00 21 1014.6
20260902105118 34 208 1.6 1.6 0.00 0.00 0.00 20 1014.2
20260902104619 35 251 8.0 9.7 0.00 0.00 0.00 20 1014.2
20260902104118 35 280 3.2 4.8 0.00 0.00 0.00 20 1014.6
20260902103618 35 14 3.2 3.2 0.00 0.00 0.00 19 1014.2
20260902103118 35 85 3.2 3.2 0.00 0.00 0.00 19 1014.2
20260902102618 33 111 1.6 1.6 0.00 0.00 0.00 20 1014.2
20260902102118 33 254 0.0 0.0 0.00 0.00 0.00 21 1014.6
20260902101619 33 101 1.6 1.6 0.00 0.00 0.00 20 1014.6
20260902101119 34 257 1.6 1.6 0.00 0.00 0.00 20 1014.9
20260902100618 33 95 1.6 1.6 0.00 0.00 0.00 21 1014.6
20260902100118 33 115 0.0 0.0 0.00 0.00 0.00 21 1014.6
20260902095618 33 91 3.2 1.6 0.00 0.00 0.00 21 1014.6
20260902095118 33 86 1.6 1.6 0.00 0.00 0.00 21 1014.9
20260902094618 33 112 1.6 1.6 0.00 0.00 0.00 22 1014.9
20260902094118 34 101 4.8 3.2 0.00 0.00 0.00 22 1014.9
20260902093620 33 104 3.2 3.2 0.00 0.00 0.00 22 1014.9
20260902093119 33 185 3.2 3.2 0.00 0.00 0.00 22 1014.9
20260902092619 32 12 1.6 1.6 0.00 0.00 0.00 23 1014.9
20260902092119 32 235 8.0 9.7 0.00 0.00 0.00 23 1014.9
20260902091618 32 271 3.2 4.8 0.00 0.00 0.00 24 1015.2
20260902091118 33 99 4.8 4.8 0.00 0.00 0.00 23 1015.2
20260902090618 33 95 1.6 1.6 0.00 0.00 0.00 22 1014.9
20260902090119 32 259 3.2 3.2 0.00 0.00 0.00 22 1015.2
20260902085619 32 81 1.6 1.6 0.00 0.00 0.00 23 1015.2
20260902085121 32 53 4.8 4.8 0.00 0.00 0.00 22 1015.2
20260902084622 32 45 3.2 3.2 0.00 0.00 0.00 23 1015.2
20260902084120 32 103 0.0 0.0 0.00 0.00 0.00 23 1015.6
20260902083620 33 76 3.2 3.2 0.00 0.00 0.00 21 1015.6
20260902083118 32 123 1.6 1.6 0.00 0.00 0.00 23 1015.6
20260902082618 32 103 3.2 3.2 0.00 0.00 0.00 24 1015.6
20260902082118 31 32 1.6 3.2 0.00 0.00 0.00 25 1015.6
20260902081618 31 65 3.2 4.8 0.00 0.00 0.00 25 1015.6
20260902081118 32 88 1.6 1.6 0.00 0.00 0.00 25 1015.6
20260902080618 31 65 3.2 3.2 0.00 0.00 0.00 25 1015.6
20260902080118 31 85 3.2 3.2 0.00 0.00 0.00 26 1015.6
20260902075618 31 91 4.8 3.2 0.00 0.00 0.00 27 1015.9
20260902075120 31 82 6.4 8.0 0.00 0.00 0.00 26 1015.6
20260902074619 31 38 1.6 3.2 0.00 0.00 0.00 28 1015.6
20260902074118 31 58 3.2 4.8 0.00 0.00 0.00 28 1015.9
20260902073619 30 109 3.2 3.2 0.00 0.00 0.00 29 1015.6
20260902073118 30 120 3.2 3.2 0.00 0.00 0.00 29 1015.6
20260902072620 30 53 3.2 3.2 0.00 0.00 0.00 31 1015.6
20260902072119 30 113 3.2 4.8 0.00 0.00 0.00 28 1015.6
20260902071618 30 124 1.6 1.6 0.00 0.00 0.00 31 1015.6
20260902071119 30 107 6.4 8.0 0.00 0.00 0.00 32 1015.2
20260902070619 30 125 1.6 1.6 0.00 0.00 0.00 32 1015.6
20260902070118 30 77 6.4 8.0 0.00 0.00 0.00 31 1015.6
20260902065620 30 357 1.6 1.6 0.00 0.00 0.00 32 1015.6
20260902065118 30 77 8.0 9.7 0.00 0.00 0.00 33 1015.6
20260902064618 29 161 3.2 3.2 0.00 0.00 0.00 34 1015.6
20260902064118 29 45 3.2 3.2 0.00 0.00 0.00 34 1015.6
20260902063618 29 95 3.2 4.8 0.00 0.00 0.00 35 1015.6
20260902063118 28 51 3.2 3.2 0.00 0.00 0.00 35 1015.6
20260902062619 28 106 1.6 1.6 0.00 0.00 0.00 36 1015.6
20260902062119 28 119 4.8 4.8 0.00 0.00 0.00 36 1015.6
20260902061620 28 184 4.8 3.2 0.00 0.00 0.00 36 1015.2
20260902061118 28 76 4.8 9.7 0.00 0.00 0.00 36 1015.6
20260902060619 28 76 1.6 1.6 0.00 0.00 0.00 36 1015.6
20260902060119 28 74 1.6 1.6 0.00 0.00 0.00 36 1015.6
20260902055618 28 102 4.8 4.8 0.00 0.00 0.00 35 1015.6
20260902055119 28 111 3.2 4.8 0.00 0.00 0.00 37 1015.6
20260902054137 28 70 1.6 0.0 0.00 0.00 0.00 35 1015.2
20260902053619 28 76 3.2 3.2 0.00 0.00 0.00 32 1015.6
20260902053118 28 133 4.8 4.8 0.00 0.00 0.00 31 1015.2
20260902052618 28 88 1.6 1.6 0.00 0.00 0.00 31 1015.6
20260902052119 28 109 1.6 1.6 0.00 0.00 0.00 32 1015.6
20260902051618 27 110 1.6 3.2 0.00 0.00 0.00 31 1015.2
20260902051118 27 116 0.0 0.0 0.00 0.00 0.00 32 1015.2
20260902050620 27 131 0.0 1.6 0.00 0.00 0.00 32 1015.2
20260902050118 26 99 1.6 1.6 0.00 0.00 0.00 34 1014.9
20260902045619 26 116 1.6 1.6 0.00 0.00 0.00 35 1015.2
20260902045119 25 74 0.0 0.0 0.00 0.00 0.00 37 1015.2
20260902044618 25 74 0.0 0.0 0.00 0.00 0.00 38 1015.2
20260902044119 23 74 0.0 0.0 0.00 0.00 0.00 40 1015.2
20260902043619 23 75 0.0 0.0 0.00 0.00 0.00 40 1015.2
20260902043118 22 74 0.0 0.0 0.00 0.00 0.00 40 1015.2
20260902042619 22 75 0.0 0.0 0.00 0.00 0.00 41 1015.2
20260902042120 21 63 0.0 0.0 0.00 0.00 0.00 42 1015.2
20260902041621 21 62 0.0 0.0 0.00 0.00 0.00 44 1015.2
20260902041123 21 70 1.6 1.6 0.00 0.00 0.00 43 1015.2
20260902040618 20 57 3.2 3.2 0.00 0.00 0.00 44 1015.2
20260902040118 20 77 1.6 1.6 0.00 0.00 0.00 43 1015.2
20260902035619 19 83 0.0 1.6 0.00 0.00 0.00 45 1014.9
20260902035118 18 50 0.0 0.0 0.00 0.00 0.00 45 1014.9
20260902034618 18 110 0.0 0.0 0.00 0.00 0.00 44 1015.2
20260902034119 18 119 1.6 1.6 0.00 0.00 0.00 45 1014.9
20260902033618 18 121 0.0 0.0 0.00 0.00 0.00 46 1014.9
20260902033119 18 121 0.0 0.0 0.00 0.00 0.00 45 1014.9
20260902032618 18 120 0.0 0.0 0.00 0.00 0.00 43 1014.9
20260902032120 18 128 0.0 0.0 0.00 0.00 0.00 45 1014.9
20260902031621 18 128 0.0 0.0 0.00 0.00 0.00 47 1014.9
20260902031118 18 128 0.0 0.0 0.00 0.00 0.00 48 1014.9
20260902030620 18 128 0.0 0.0 0.00 0.00 0.00 48 1014.9
20260902030119 18 130 0.0 0.0 0.00 0.00 0.00 50 1014.9
20260902025619 18 130 0.0 0.0 0.00 0.00 0.00 46 1014.9
20260902025119 18 130 0.0 0.0 0.00 0.00 0.00 45 1014.9
20260902024618 18 130 0.0 0.0 0.00 0.00 0.00 47 1014.9
20260902024120 18 132 0.0 0.0 0.00 0.00 0.00 48 1014.9
20260902023620 18 132 0.0 0.0 0.00 0.00 0.00 46 1014.9
20260902023118 18 137 0.0 0.0 0.00 0.00 0.00 46 1014.9
20260902022619 18 141 0.0 0.0 0.00 0.00 0.00 44 1014.9
20260902022118 18 141 0.0 0.0 0.00 0.00 0.00 45 1014.6
20260902021618 18 141 0.0 0.0 0.00 0.00 0.00 44 1014.9
20260902021120 18 176 0.0 0.0 0.00 0.00 0.00 43 1014.9
20260902020618 18 114 0.0 0.0 0.00 0.00 0.00 47 1014.9
20260902020119 18 112 0.0 0.0 0.00 0.00 0.00 49 1014.6
20260902015619 17 112 0.0 0.0 0.00 0.00 0.00 49 1014.9
20260902015119 18 112 0.0 0.0 0.00 0.00 0.00 52 1014.9
20260902014618 17 113 0.0 0.0 0.00 0.00 0.00 53 1014.9
20260902014118 17 111 0.0 0.0 0.00 0.00 0.00 55 1014.9
20260902013621 17 111 0.0 0.0 0.00 0.00 0.00 56 1014.6
20260902013119 17 113 0.0 0.0 0.00 0.00 0.00 56 1014.6
20260902012620 17 113 0.0 0.0 0.00 0.00 0.00 55 1014.6
20260902012120 17 115 0.0 0.0 0.00 0.00 0.00 55 1014.6
20260902011619 17 115 0.0 0.0 0.00 0.00 0.00 58 1014.6
20260902011120 17 113 1.6 1.6 0.00 0.00 0.00 57 1014.6
20260902010626 17 108 0.0 0.0 0.00 0.00 0.00 60 1014.9
20260902010118 17 108 0.0 0.0 0.00 0.00 0.00 60 1014.6
20260902005618 17 108 0.0 0.0 0.00 0.00 0.00 60 1014.6
20260902005118 17 108 0.0 0.0 0.00 0.00 0.00 62 1014.9
20260902004619 17 108 0.0 0.0 0.00 0.00 0.00 63 1014.6
20260902004119 17 108 0.0 0.0 0.00 0.00 0.00 67 1014.6
20260902003618 17 108 0.0 0.0 0.00 0.00 0.00 69 1014.6
20260902003118 17 108 0.0 0.0 0.00 0.00 0.00 68 1014.6
20260902002618 17 108 0.0 0.0 0.00 0.00 0.00 70 1014.6
20260902002118 17 108 0.0 0.0 0.00 0.00 0.00 68 1014.6
20260902001618 17 108 0.0 0.0 0.00 0.00 0.00 71 1014.9
20260902001118 18 108 0.0 0.0 0.00 0.00 0.00 71 1014.6
20260902000618 18 108 0.0 0.0 0.00 0.00 0.00 72 1014.9
20260902000120 17 274 0.0 0.0 0.00 0.00 0.00 74 1014.6
20260901235618 17 274 0.0 0.0 0.00 0.00 0.00 75 1014.9
20260901235118 17 274 0.0 0.0 0.00 0.00 0.00 75 1014.9
20260901234619 17 274 0.0 0.0 0.00 0.00 0.00 74 1014.6
20260901234118 17 274 0.0 0.0 0.00 0.00 0.00 73 1014.6
20260901233618 18 275 0.0 0.0 0.00 0.00 0.00 73 1014.6
20260901233118 18 275 0.0 0.0 0.00 0.00 0.00 71 1014.6
20260901232618 18 275 0.0 0.0 0.00 0.00 0.00 72 1014.6
20260901232118 18 276 0.0 0.0 0.00 0.00 0.00 71 1014.6
20260901231618 18 276 0.0 0.0 0.00 0.00 0.00 71 1014.9
20260901231119 18 276 0.0 0.0 0.00 0.00 0.00 69 1014.6
20260901230619 18 275 0.0 0.0 0.00 0.00 0.00 70 1014.6
20260901230118 18 273 1.6 1.6 0.00 0.00 0.00 70 1014.6
20260901225618 18 280 0.0 0.0 0.00 0.00 0.00 69 1014.9
20260901225118 18 280 0.0 0.0 0.00 0.00 0.00 69 1014.9
20260901224618 19 270 0.0 0.0 0.00 0.00 0.00 72 1014.6